Volver al catálogo

STARLINK-35346

ActivoComunicacionesVLEO
NORAD 66179·PAYLOAD·🇺🇸 United States

Lanzado Oct 26, 2025 desde Cape Canaveral Space Force Station

Loading…

Próximos Pases (próximas 24 horas)

TLE

ActualizadoSource: CelesTrak SupGP

Época: Sep 14, 2026, 20:48 UTC

1 66179C 25243C   26257.86715278  .00004508  00000+0  13322-3 0  2578
2 66179  53.1581  83.7007 0001045  85.0040  64.0185 15.34383343    18

Sigue STARLINK-35346 en tiempo real con AllMySat

Download on the App Store